﻿_id,日時,平均風速(m/s),平均風向,最大瞬間風速(m/s),最大風速時風向,気温(℃),湿度(%),10分間移動積算雨量(mm),1時間移動積算雨量(mm),日雨量(mm),累計雨量(mm)
1,2024-06-10T00:00:00,1.5,南,2.8,南,17.4,96.7,0,0,7.5,10
2,2024-06-10T00:01:00,1.5,南,2.8,南,17.5,96.9,0,0,0,10
3,2024-06-10T00:02:00,1.3,南,2.8,南,17.4,96.9,0,0,0,10
4,2024-06-10T00:03:00,1.1,南,2.8,南,17.4,96.7,0,0,0,10
5,2024-06-10T00:04:00,1,南南東,2.4,南,17.3,96.6,0,0,0,10
6,2024-06-10T00:05:00,0.9,南,2,南南東,17.3,96.6,0,0,0,10
7,2024-06-10T00:06:00,0.8,南,1.6,南南西,17.2,96.7,0,0,0,10
8,2024-06-10T00:07:00,0.8,南,1.6,南南西,17.2,96.7,0,0,0,10
9,2024-06-10T00:08:00,0.8,南,1.6,南南西,17.2,96.7,0,0,0,10
10,2024-06-10T00:09:00,0.8,南,1.8,南南西,17.2,96.7,0,0,0,10
11,2024-06-10T00:10:00,0.8,南,1.8,南南西,17.2,96.7,0,0,0,10
12,2024-06-10T00:11:00,0.9,南南西,1.8,南南西,17.2,96.7,0,0,0,10
13,2024-06-10T00:12:00,0.9,南南西,1.8,南南西,17.2,96.6,0,0,0,10
14,2024-06-10T00:13:00,0.9,南南西,1.8,南南西,17.2,96.6,0,0,0,10
15,2024-06-10T00:14:00,0.9,南南西,1.8,南南西,17.3,96.6,0,0,0,10
16,2024-06-10T00:15:00,0.8,南南西,1.8,南南西,17.4,96.7,0,0,0,10
17,2024-06-10T00:16:00,0.7,南西,1.8,南南西,17.4,96.7,0.5,0.5,0.5,10.5
18,2024-06-10T00:17:00,0.7,南西,1.8,南南西,17.3,96.4,0.5,0.5,0.5,10.5
19,2024-06-10T00:18:00,0.6,西南西,1.8,南南西,17.3,96.3,0.5,0.5,0.5,10.5
20,2024-06-10T00:19:00,0.5,西南西,1.6,南西,17.3,96.4,0.5,0.5,0.5,10.5
21,2024-06-10T00:20:00,0.5,西,1.6,南西,17.3,96.5,0.5,0.5,0.5,10.5
22,2024-06-10T00:21:00,0.4,西北西,1.3,南西,17.4,96.5,0.5,0.5,0.5,10.5
23,2024-06-10T00:22:00,0.3,北西,1.1,北北西,17.4,96.6,0.5,0.5,0.5,10.5
24,2024-06-10T00:23:00,0.3,北西,1.1,北北西,17.5,96.7,0.5,0.5,0.5,10.5
25,2024-06-10T00:24:00,0.3,北西,1.1,北北西,17.4,96.7,0.5,0.5,0.5,10.5
26,2024-06-10T00:25:00,0.4,北西,2,西南西,17.4,96.7,0.5,0.5,0.5,10.5
27,2024-06-10T00:26:00,0.5,北西,2,西南西,17.5,96.8,0,0.5,0.5,10.5
28,2024-06-10T00:27:00,0.5,西北西,2,西南西,17.5,96.8,0,0.5,0.5,10.5
29,2024-06-10T00:28:00,0.6,西北西,2,西南西,17.6,96.9,0,0.5,0.5,10.5
30,2024-06-10T00:29:00,0.6,西北西,2,西南西,17.5,96.8,0,0.5,0.5,10.5
31,2024-06-10T00:30:00,0.6,西,2,西南西,17.5,96.7,0,0.5,0.5,10.5
32,2024-06-10T00:31:00,0.6,西南西,2,西南西,17.6,96.9,0,0.5,0.5,10.5
33,2024-06-10T00:32:00,0.7,南西,2,西南西,17.4,96.7,0,0.5,0.5,10.5
34,2024-06-10T00:33:00,0.8,南南西,2,西南西,17.4,96.6,0,0.5,0.5,10.5
35,2024-06-10T00:34:00,0.9,南,2,西南西,17.4,96.7,0,0.5,0.5,10.5
36,2024-06-10T00:35:00,,"",,"",,,,,,
37,2024-06-10T00:36:00,1,南東,2,東南東,17.3,96.8,0,0.5,0.5,10.5
38,2024-06-10T00:37:00,1.1,南東,2,東南東,17.3,96.9,0,0.5,0.5,10.5
39,2024-06-10T00:38:00,1.1,東南東,2,東南東,17.4,97,0,0.5,0.5,10.5
40,2024-06-10T00:39:00,1.1,東南東,2,東南東,17.4,97,0,0.5,0.5,10.5
41,2024-06-10T00:40:00,1.1,東南東,2,東南東,17.4,97.1,0,0.5,0.5,10.5
42,2024-06-10T00:41:00,1.1,東,2,東南東,17.4,97,0,0.5,0.5,10.5
43,2024-06-10T00:42:00,1.1,東,2,東南東,17.4,97,0,0.5,0.5,10.5
44,2024-06-10T00:43:00,1,東,2,東南東,17.4,97,0,0.5,0.5,10.5
45,2024-06-10T00:44:00,1,東,2,東南東,17.3,97,0,0.5,0.5,10.5
46,2024-06-10T00:45:00,1,東,2.4,東,17.3,97,0,0.5,0.5,10.5
47,2024-06-10T00:46:00,1.1,東,3,東南東,17.2,96.9,0,0.5,0.5,10.5
48,2024-06-10T00:47:00,1.3,東,3.6,東南東,17.2,96.9,0,0.5,0.5,10.5
49,2024-06-10T00:48:00,1.6,東,3.6,東南東,17.2,97,0,0.5,0.5,10.5
50,2024-06-10T00:49:00,1.8,東,3.6,東南東,17.2,97,0,0.5,0.5,10.5
51,2024-06-10T00:50:00,2.1,東,4.6,東南東,17.2,97,0,0.5,0.5,10.5
52,2024-06-10T00:51:00,2.5,東,5.2,東南東,17.1,96.9,0,0.5,0.5,10.5
53,2024-06-10T00:52:00,2.8,東,5.2,東南東,17.1,96.9,0,0.5,0.5,10.5
54,2024-06-10T00:53:00,3.1,東南東,5.2,東南東,17.1,96.8,0,0.5,0.5,10.5
55,2024-06-10T00:54:00,3.3,東南東,5.2,東南東,17.1,96.8,0,0.5,0.5,10.5
56,2024-06-10T00:55:00,3.3,東南東,5.2,東南東,17.1,96.8,0,0.5,0.5,10.5
57,2024-06-10T00:56:00,3.3,東南東,5.2,東南東,17.2,96.7,0,0.5,0.5,10.5
58,2024-06-10T00:57:00,3.2,東,5.2,東南東,17.2,96.6,0,0.5,0.5,10.5
59,2024-06-10T00:58:00,3.2,東,5.2,東南東,17.2,96.4,0,0.5,0.5,10.5
60,2024-06-10T00:59:00,3,東,5.2,東南東,17.3,96.2,0,0.5,0.5,10.5
61,2024-06-10T01:00:00,3,東北東,5.2,東南東,17.4,96,0,0.5,0.5,10.5
62,2024-06-10T01:01:00,2.9,北東,5,東,17.4,96.2,0,0.5,0.5,10.5
63,2024-06-10T01:02:00,2.8,北東,5.2,西北西,17.4,96.4,0,0.5,0.5,10.5
64,2024-06-10T01:03:00,2.7,北北東,5.2,西北西,17.4,96.4,0,0.5,0.5,10.5
65,2024-06-10T01:04:00,2.6,北,5.2,西北西,17.5,96.1,0,0.5,0.5,10.5
66,2024-06-10T01:05:00,2.7,北北西,5.2,西北西,17.6,95.7,0,0.5,0.5,10.5
67,2024-06-10T01:06:00,2.7,北北西,5.2,西北西,17.6,95.4,0,0.5,0.5,10.5
68,2024-06-10T01:07:00,2.6,北北西,5.2,西北西,17.7,94.7,0,0.5,0.5,10.5
69,2024-06-10T01:08:00,2.5,北西,5.2,西北西,17.9,93.4,0,0.5,0.5,10.5
70,2024-06-10T01:09:00,2.6,北西,5.2,西北西,17.9,92.4,0,0.5,0.5,10.5
71,2024-06-10T01:10:00,2.5,北西,5.2,西北西,17.9,92.6,0,0.5,0.5,10.5
72,2024-06-10T01:11:00,2.4,西北西,5.2,西北西,17.9,93.5,0,0.5,0.5,10.5
73,2024-06-10T01:12:00,2.3,西北西,4.5,北西,17.9,94.3,0,0.5,0.5,10.5
74,2024-06-10T01:13:00,2.2,西北西,4,西,17.9,94.8,0,0.5,0.5,10.5
75,2024-06-10T01:14:00,2.2,西,4,西,17.9,95,0,0.5,0.5,10.5
76,2024-06-10T01:15:00,2.3,西,4,西,17.8,95.2,0,0.5,0.5,10.5
77,2024-06-10T01:16:00,2.5,西,5.6,西,17.8,95.2,0,0,0.5,10.5
78,2024-06-10T01:17:00,2.6,西,5.6,西,17.8,94.7,0,0,0.5,10.5
79,2024-06-10T01:18:00,2.9,西,5.6,西,17.8,93.8,0,0,0.5,10.5
80,2024-06-10T01:19:00,3.1,西,5.6,西,17.8,93.4,0,0,0.5,10.5
81,2024-06-10T01:20:00,3.2,西,5.6,西,17.8,93.4,0,0,0.5,10.5
82,2024-06-10T01:21:00,3.2,西,5.6,西,17.8,93.3,0,0,0.5,10.5
83,2024-06-10T01:22:00,3.3,西,5.6,西,17.8,93.6,0,0,0.5,10.5
84,2024-06-10T01:23:00,3.3,西,5.6,西,17.8,93.4,0,0,0.5,10.5
85,2024-06-10T01:24:00,3.3,西北西,5.6,西,17.8,93.3,0,0,0.5,10.5
86,2024-06-10T01:25:00,3.3,西北西,5.6,西,17.8,93.2,0,0,0.5,10.5
87,2024-06-10T01:26:00,3.1,西北西,5.1,西,17.8,93.1,0,0,0.5,10.5
88,2024-06-10T01:27:00,2.9,西北西,5.1,西,17.8,93,0,0,0.5,10.5
89,2024-06-10T01:28:00,2.7,西北西,4.8,西北西,17.9,92.9,0,0,0.5,10.5
90,2024-06-10T01:29:00,2.7,西北西,4.8,西北西,17.9,92.3,0,0,0.5,10.5
91,2024-06-10T01:30:00,2.6,西北西,4.8,西北西,17.9,91.9,0,0,0.5,10.5
92,2024-06-10T01:31:00,2.5,西北西,4.8,西北西,17.9,91.8,0,0,0.5,10.5
93,2024-06-10T01:32:00,2.3,西北西,4,西北西,17.9,92.4,0,0,0.5,10.5
94,2024-06-10T01:33:00,2.2,西,4,西北西,17.8,93.5,0,0,0.5,10.5
95,2024-06-10T01:34:00,2.2,西,4,西北西,17.7,94.1,0,0,0.5,10.5
96,2024-06-10T01:35:00,2.1,西,3.8,西,17.6,94.6,0,0,0.5,10.5
97,2024-06-10T01:36:00,2.2,西南西,3.8,西,17.6,95.2,0,0,0.5,10.5
98,2024-06-10T01:37:00,2.4,西南西,4.4,西,17.7,95.4,0,0,0.5,10.5
99,2024-06-10T01:38:00,2.5,西南西,4.6,西,17.7,94.9,0,0,0.5,10.5
100,2024-06-10T01:39:00,2.5,西南西,4.6,西,17.7,94.4,0,0,0.5,10.5
101,2024-06-10T01:40:00,2.5,西南西,4.6,西,17.8,94.6,0,0,0.5,10.5
102,2024-06-10T01:41:00,2.5,西南西,4.6,西,17.7,94.2,0,0,0.5,10.5
103,2024-06-10T01:42:00,2.7,西南西,4.6,西,17.7,93.7,0,0,0.5,10.5
104,2024-06-10T01:43:00,2.8,西,4.6,西,17.7,93.6,0,0,0.5,10.5
105,2024-06-10T01:44:00,2.7,西,4.6,西,17.8,93.8,0,0,0.5,10.5
106,2024-06-10T01:45:00,2.6,西,4.6,西,17.8,94.4,0,0,0.5,10.5
107,2024-06-10T01:46:00,2.5,西,4.6,西,17.7,94.8,0,0,0.5,10.5
108,2024-06-10T01:47:00,2.3,西,4.6,西,17.7,94.8,0,0,0.5,10.5
109,2024-06-10T01:48:00,2.2,西南西,3.8,西,17.6,95.1,0,0,0.5,10.5
110,2024-06-10T01:49:00,2.1,西南西,3.8,西,17.6,95.2,0,0,0.5,10.5
111,2024-06-10T01:50:00,1.9,西南西,3.8,西,17.6,95.4,0,0,0.5,10.5
112,2024-06-10T01:51:00,1.7,西南西,3.8,西,17.6,95.6,0,0,0.5,10.5
113,2024-06-10T01:52:00,1.6,西南西,3.6,西,17.6,95.6,0,0,0.5,10.5
114,2024-06-10T01:53:00,1.5,西南西,3.1,西南西,17.6,95.5,0,0,0.5,10.5
115,2024-06-10T01:54:00,1.5,西南西,2.5,西北西,17.7,95.4,0,0,0.5,10.5
116,2024-06-10T01:55:00,1.5,西南西,2.5,西北西,17.7,95.4,0,0,0.5,10.5
117,2024-06-10T01:56:00,1.5,西,2.5,西北西,17.7,95.4,0,0,0.5,10.5
118,2024-06-10T01:57:00,1.4,西,2.5,西北西,17.7,95.2,0,0,0.5,10.5
119,2024-06-10T01:58:00,1.3,西,2.5,西北西,17.7,95.1,0,0,0.5,10.5
120,2024-06-10T01:59:00,1.2,西,2.5,西北西,17.7,94.9,0,0,0.5,10.5
121,2024-06-10T02:00:00,1.2,西,2.5,西北西,17.7,94.8,0,0,0.5,10.5
122,2024-06-10T02:01:00,1.1,西,2.4,西北西,17.7,95.2,0,0,0.5,10.5
123,2024-06-10T02:02:00,1,西,2.3,西,17.7,95.2,0,0,0.5,10.5
124,2024-06-10T02:03:00,0.8,西南西,2,西北西,17.8,95.4,0,0,0.5,10.5
125,2024-06-10T02:04:00,0.8,南西,2,西北西,17.8,95.9,0,0,0.5,10.5
126,2024-06-10T02:05:00,0.7,南南西,2,西北西,17.7,95.5,0,0,0.5,10.5
127,2024-06-10T02:06:00,0.6,南,1.8,西,17.7,95.7,0,0,0.5,10.5
128,2024-06-10T02:07:00,0.6,南,1.4,西北西,17.7,95.8,0,0,0.5,10.5
129,2024-06-10T02:08:00,0.5,南南東,1.3,西北西,17.7,96,0,0,0.5,10.5
130,2024-06-10T02:09:00,0.5,南南東,1.2,南南西,17.6,96.1,0,0,0.5,10.5
131,2024-06-10T02:10:00,0.5,南南東,1.2,南南西,17.6,96.1,0,0,0.5,10.5
132,2024-06-10T02:11:00,0.6,南南東,1.2,南南西,17.6,96.2,0,0,0.5,10.5
133,2024-06-10T02:12:00,0.6,南南東,1.2,南南西,17.6,96.2,0,0,0.5,10.5
134,2024-06-10T02:13:00,0.7,南南東,1.2,南南西,17.6,96.3,0,0,0.5,10.5
135,2024-06-10T02:14:00,0.7,南東,1.2,南南西,17.6,96.4,0,0,0.5,10.5
136,2024-06-10T02:15:00,0.7,南東,1.2,東南東,17.5,96.4,0,0,0.5,10.5
137,2024-06-10T02:16:00,0.8,南東,1.2,東南東,17.5,96.5,0,0,0.5,10.5
138,2024-06-10T02:17:00,0.8,南東,1.2,東南東,17.5,96.5,0,0,0.5,10.5
139,2024-06-10T02:18:00,0.8,南東,1.2,東南東,17.5,96.6,0,0,0.5,10.5
140,2024-06-10T02:19:00,0.8,南東,1.2,東南東,17.6,96.7,0,0,0.5,10.5
141,2024-06-10T02:20:00,0.8,東南東,1.2,東南東,17.6,96.8,0,0,0.5,10.5
142,2024-06-10T02:21:00,0.8,東南東,1.2,東南東,17.6,96.9,0,0,0.5,10.5
143,2024-06-10T02:22:00,0.7,東南東,1.2,東南東,17.6,96.9,0,0,0.5,10.5
144,2024-06-10T02:23:00,0.7,東南東,1.2,東南東,17.6,96.9,0,0,0.5,10.5
145,2024-06-10T02:24:00,0.6,東南東,1.1,東南東,18,97.2,0,0,0.5,10.5
146,2024-06-10T02:25:00,0.6,東南東,1,東南東,17.7,97,0,0,0.5,10.5
147,2024-06-10T02:26:00,0.6,東南東,1,東南東,17.6,96.5,0,0,0.5,10.5
148,2024-06-10T02:27:00,0.5,東南東,1,東南東,17.5,96.4,0,0,0.5,10.5
149,2024-06-10T02:28:00,0.5,南東,1,東南東,17.5,96.6,0,0,0.5,10.5
150,2024-06-10T02:29:00,0.5,南東,0.8,東南東,17.6,96.7,0,0,0.5,10.5
151,2024-06-10T02:30:00,0.6,南東,1,南東,17.5,96.7,0,0,0.5,10.5
152,2024-06-10T02:31:00,0.6,南東,1.2,南東,17.5,96.8,0,0,0.5,10.5
153,2024-06-10T02:32:00,0.7,南東,1.2,南東,17.6,96.9,0,0,0.5,10.5
154,2024-06-10T02:33:00,0.7,南東,1.2,南東,17.5,97,0,0,0.5,10.5
155,2024-06-10T02:34:00,0.7,南東,1.2,南東,17.7,97.2,0,0,0.5,10.5
156,2024-06-10T02:35:00,0.7,南東,1.2,南東,17.6,97.1,0,0,0.5,10.5
157,2024-06-10T02:36:00,0.8,南東,1.2,南東,17.6,96.8,0,0,0.5,10.5
158,2024-06-10T02:37:00,0.8,南東,1.2,南東,17.5,96.8,0,0,0.5,10.5
159,2024-06-10T02:38:00,0.8,東南東,1.2,南東,17.4,96.8,0,0,0.5,10.5
160,2024-06-10T02:39:00,0.8,東南東,1.2,南東,17.5,96.8,0,0,0.5,10.5
161,2024-06-10T02:40:00,0.7,東南東,1.2,南東,17.4,96.9,0,0,0.5,10.5
162,2024-06-10T02:41:00,0.7,東,1.2,南東,17.4,97,0,0,0.5,10.5
163,2024-06-10T02:42:00,0.6,東,1.1,東南東,17.4,97,0,0,0.5,10.5
164,2024-06-10T02:43:00,0.6,東,1.1,東南東,17.5,97,0,0,0.5,10.5
165,2024-06-10T02:44:00,0.6,東北東,1.1,東南東,17.6,97.2,0,0,0.5,10.5
166,2024-06-10T02:45:00,0.5,東北東,1.1,東南東,17.6,97.4,0,0,0.5,10.5
167,2024-06-10T02:46:00,0.5,東北東,1,東南東,17.4,97.1,0,0,0.5,10.5
168,2024-06-10T02:47:00,0.4,北東,0.9,東北東,17.4,97,0,0,0.5,10.5
169,2024-06-10T02:48:00,0.4,北東,0.9,東北東,17.4,97.1,0,0,0.5,10.5
170,2024-06-10T02:49:00,0.4,北東,0.7,北東,17.4,97.2,0,0,0.5,10.5
171,2024-06-10T02:50:00,0.4,北東,0.9,東,17.4,97.2,0,0,0.5,10.5
172,2024-06-10T02:51:00,0.4,東北東,0.9,東,17.5,97.3,0,0,0.5,10.5
173,2024-06-10T02:52:00,0.5,東北東,1.1,東北東,17.5,97.4,0,0,0.5,10.5
174,2024-06-10T02:53:00,0.5,東北東,1.2,東北東,17.4,97.3,0,0,0.5,10.5
175,2024-06-10T02:54:00,0.6,東北東,1.5,東北東,17.4,97.3,0,0,0.5,10.5
176,2024-06-10T02:55:00,0.7,東北東,1.5,東北東,17.4,97.3,0,0,0.5,10.5
177,2024-06-10T02:56:00,0.8,東北東,1.5,東北東,17.4,97.3,0,0,0.5,10.5
178,2024-06-10T02:57:00,0.9,東北東,1.6,東北東,17.4,97.3,0,0,0.5,10.5
179,2024-06-10T02:58:00,0.9,東北東,1.6,東北東,17.4,97.3,0,0,0.5,10.5
180,2024-06-10T02:59:00,1,東北東,1.6,東北東,17.4,97.3,0,0,0.5,10.5
181,2024-06-10T03:00:00,1,東北東,1.6,東北東,17.4,97.3,0,0,0.5,10.5
182,2024-06-10T03:01:00,1.1,東北東,1.6,東北東,17.4,97.3,0,0,0.5,10.5
183,2024-06-10T03:02:00,1.1,北東,1.6,東北東,17.4,97.3,0,0,0.5,10.5
184,2024-06-10T03:03:00,1.1,北東,1.6,東北東,17.4,97.4,0,0,0.5,10.5
185,2024-06-10T03:04:00,1.2,北東,1.6,東北東,17.4,97.3,0,0,0.5,10.5
186,2024-06-10T03:05:00,1.2,北東,1.6,東北東,17.4,97.4,0,0,0.5,10.5
187,2024-06-10T03:06:00,1.2,北東,1.6,東北東,17.4,97.4,0,0,0.5,10.5
188,2024-06-10T03:07:00,1.1,北東,1.7,北東,17.4,97.4,0,0,0.5,10.5
189,2024-06-10T03:08:00,1.2,北東,1.7,北東,17.4,97.3,0,0,0.5,10.5
190,2024-06-10T03:09:00,1.2,北東,1.7,北東,17.4,97.3,0,0,0.5,10.5
191,2024-06-10T03:10:00,1.1,北東,1.7,北東,17.4,97.3,0,0,0.5,10.5
192,2024-06-10T03:11:00,1.1,北東,1.7,北東,17.4,97.4,0,0,0.5,10.5
193,2024-06-10T03:12:00,1,北東,1.7,北東,17.5,97.4,0,0,0.5,10.5
194,2024-06-10T03:13:00,1,北東,1.7,北東,17.4,97.4,0,0,0.5,10.5
195,2024-06-10T03:14:00,0.9,北東,1.7,北東,17.4,97.3,0,0,0.5,10.5
196,2024-06-10T03:15:00,0.8,北東,1.7,北東,17.4,97.3,0,0,0.5,10.5
197,2024-06-10T03:16:00,0.8,北東,1.7,北東,17.4,97.4,0,0,0.5,10.5
198,2024-06-10T03:17:00,0.7,北東,1.4,北東,17.5,97.4,0,0,0.5,10.5
199,2024-06-10T03:18:00,0.6,東北東,1.3,東北東,17.4,97.4,0,0,0.5,10.5
200,2024-06-10T03:19:00,0.5,東北東,1.2,北東,17.5,97.4,0,0,0.5,10.5
201,2024-06-10T03:20:00,0.5,東北東,1.2,北東,17.5,97.5,0,0,0.5,10.5
202,2024-06-10T03:21:00,0.4,東北東,1,東北東,17.7,97.5,0,0,0.5,10.5
203,2024-06-10T03:22:00,0.4,東,0.8,南東,17.6,97.6,0,0,0.5,10.5
204,2024-06-10T03:23:00,0.4,東,0.8,南東,17.6,97.4,0,0,0.5,10.5
205,2024-06-10T03:24:00,0.3,東,0.8,南東,17.6,97.3,0,0,0.5,10.5
206,2024-06-10T03:25:00,0.4,東南東,0.9,南東,17.5,97.2,0,0,0.5,10.5
207,2024-06-10T03:26:00,0.4,東南東,0.9,南東,17.5,97.3,0,0,0.5,10.5
208,2024-06-10T03:27:00,0.4,南東,0.9,南東,17.4,97.2,0,0,0.5,10.5
209,2024-06-10T03:28:00,0.4,南東,0.9,南東,17.3,97.1,0,0,0.5,10.5
210,2024-06-10T03:29:00,0.4,南南東,0.9,南東,17.3,97.2,0,0,0.5,10.5
211,2024-06-10T03:30:00,0.4,南,0.9,南東,17.3,97.3,0,0,0.5,10.5
212,2024-06-10T03:31:00,0.4,南,0.9,南東,17.7,97.5,0,0,0.5,10.5
213,2024-06-10T03:32:00,0.4,南,0.9,南東,17.7,97.7,0,0,0.5,10.5
214,2024-06-10T03:33:00,0.4,南,0.9,南東,17.6,97.6,0,0,0.5,10.5
215,2024-06-10T03:34:00,0.4,南,0.9,南東,17.5,97.3,0,0,0.5,10.5
216,2024-06-10T03:35:00,0.4,南南東,0.9,南東,17.5,97.2,0,0,0.5,10.5
217,2024-06-10T03:36:00,0.4,南南東,0.9,南東,17.5,97.3,0,0,0.5,10.5
218,2024-06-10T03:37:00,0.5,南南東,1.2,東南東,17.5,97.3,0,0,0.5,10.5
219,2024-06-10T03:38:00,0.5,南東,1.2,東南東,17.5,97.2,0,0,0.5,10.5
220,2024-06-10T03:39:00,0.6,南東,1.4,東,17.5,97.2,0,0,0.5,10.5
221,2024-06-10T03:40:00,0.7,東南東,1.5,東,17.5,97.2,0,0,0.5,10.5
222,2024-06-10T03:41:00,0.8,東南東,1.5,東,17.4,97.2,0,0,0.5,10.5
223,2024-06-10T03:42:00,0.8,東南東,1.5,東,17.4,97.2,0,0,0.5,10.5
224,2024-06-10T03:43:00,0.9,東,1.5,東,17.4,97.3,0,0,0.5,10.5
225,2024-06-10T03:44:00,0.9,東,1.5,東,17.4,97.3,0,0,0.5,10.5
226,2024-06-10T03:45:00,1,東,1.5,東,17.4,97.3,0,0,0.5,10.5
227,2024-06-10T03:46:00,1,東,1.6,東南東,17.4,97.3,0,0,0.5,10.5
228,2024-06-10T03:47:00,1.1,東,1.6,東南東,17.4,97.3,0,0,0.5,10.5
229,2024-06-10T03:48:00,1.1,東,1.6,東南東,17.4,97.3,0,0,0.5,10.5
230,2024-06-10T03:49:00,1.1,東,1.7,東,17.4,97.4,0,0,0.5,10.5
231,2024-06-10T03:50:00,1.1,東,1.7,東,17.4,97.4,0,0,0.5,10.5
232,2024-06-10T03:51:00,1.1,東,1.7,東,17.4,97.4,0,0,0.5,10.5
233,2024-06-10T03:52:00,1.1,東,1.7,東,17.4,97.4,0,0,0.5,10.5
234,2024-06-10T03:53:00,1.1,東,1.7,東,17.4,97.4,0,0,0.5,10.5
235,2024-06-10T03:54:00,1.1,東,1.9,東,17.3,97.4,0,0,0.5,10.5
236,2024-06-10T03:55:00,1.1,東,1.9,東,17.3,97.3,0,0,0.5,10.5
237,2024-06-10T03:56:00,1.1,東,1.9,東,17.3,97.3,0,0,0.5,10.5
238,2024-06-10T03:57:00,1,東,1.9,東,17.3,97.3,0,0,0.5,10.5
239,2024-06-10T03:58:00,1,東,1.9,東,17.3,97.3,0,0,0.5,10.5
240,2024-06-10T03:59:00,0.9,東,1.9,東,17.3,97.3,0,0,0.5,10.5
241,2024-06-10T04:00:00,0.9,東,1.9,東,17.3,97.3,0,0,0.5,10.5
242,2024-06-10T04:01:00,0.9,東,1.9,東,17.3,97.3,0,0,0.5,10.5
243,2024-06-10T04:02:00,0.9,東,1.9,東,17.3,97.4,0,0,0.5,10.5
244,2024-06-10T04:03:00,0.9,東,1.9,東,17.3,97.4,0,0,0.5,10.5
245,2024-06-10T04:04:00,0.8,東北東,1.7,東,17.3,97.4,0,0,0.5,10.5
246,2024-06-10T04:05:00,0.8,東北東,1.2,東北東,17.3,97.4,0,0,0.5,10.5
247,2024-06-10T04:06:00,0.8,東北東,1.3,東北東,17.3,97.5,0,0,0.5,10.5
248,2024-06-10T04:07:00,0.8,東北東,1.8,東北東,17.3,97.5,0,0,0.5,10.5
249,2024-06-10T04:08:00,0.8,東北東,1.8,東北東,17.3,97.5,0,0,0.5,10.5
250,2024-06-10T04:09:00,0.9,東北東,1.8,東北東,17.3,97.5,0,0,0.5,10.5
251,2024-06-10T04:10:00,0.9,東北東,2.2,東北東,17.3,97.5,0,0,0.5,10.5
252,2024-06-10T04:11:00,1,東北東,2.3,北東,17.3,97.5,0,0,0.5,10.5
253,2024-06-10T04:12:00,1.1,東北東,2.3,北東,17.3,97.5,0,0,0.5,10.5
254,2024-06-10T04:13:00,1.1,東北東,2.3,北東,17.3,97.5,0,0,0.5,10.5
255,2024-06-10T04:14:00,1.2,東北東,2.3,北東,17.3,97.5,0,0,0.5,10.5
256,2024-06-10T04:15:00,1.2,東北東,2.3,北東,17.3,97.5,0,0,0.5,10.5
257,2024-06-10T04:16:00,1.3,東北東,2.3,北東,17.3,97.5,0,0,0.5,10.5
258,2024-06-10T04:17:00,1.3,東北東,2.3,北東,17.3,97.5,0,0,0.5,10.5
259,2024-06-10T04:18:00,1.3,東北東,2.3,北東,17.3,97.5,0,0,0.5,10.5
260,2024-06-10T04:19:00,1.3,東北東,2.3,北東,17.3,97.5,0,0,0.5,10.5
261,2024-06-10T04:20:00,1.3,東北東,2.3,北東,17.3,97.5,0,0,0.5,10.5
262,2024-06-10T04:21:00,1.2,東北東,2,北東,17.2,97.5,0,0,0.5,10.5
263,2024-06-10T04:22:00,1.2,東,2,北東,17.3,97.5,0,0,0.5,10.5
264,2024-06-10T04:23:00,1.2,東,2,北東,17.2,97.5,0,0,0.5,10.5
265,2024-06-10T04:24:00,1.2,東,2,北東,17.2,97.5,0,0,0.5,10.5
266,2024-06-10T04:25:00,1.2,東,2,北東,17.2,97.5,0,0,0.5,10.5
267,2024-06-10T04:26:00,1.1,東,2,北東,17.2,97.6,0,0,0.5,10.5
268,2024-06-10T04:27:00,1.1,東,1.7,東南東,17.2,97.5,0,0,0.5,10.5
269,2024-06-10T04:28:00,1.1,東,1.8,北東,17.2,97.5,0,0,0.5,10.5
270,2024-06-10T04:29:00,1.1,東,2,東北東,17.1,97.4,0,0,0.5,10.5
271,2024-06-10T04:30:00,1.2,東,2,東北東,17.1,97.5,0,0,0.5,10.5
272,2024-06-10T04:31:00,1.2,東,2,東北東,17.1,97.5,0,0,0.5,10.5
273,2024-06-10T04:32:00,1.2,東北東,2,東北東,17.1,97.5,0,0,0.5,10.5
274,2024-06-10T04:33:00,1.2,東北東,2,東北東,17.1,97.5,0,0,0.5,10.5
275,2024-06-10T04:34:00,1.2,東北東,2,東北東,17.1,97.6,0,0,0.5,10.5
276,2024-06-10T04:35:00,1.2,東北東,2,東北東,17.1,97.6,0,0,0.5,10.5
277,2024-06-10T04:36:00,1.2,東北東,2,東北東,17.1,97.5,0,0,0.5,10.5
278,2024-06-10T04:37:00,1.1,東北東,2,東北東,17.1,97.5,0,0,0.5,10.5
279,2024-06-10T04:38:00,1.1,東北東,2,東北東,17.3,97.6,0,0,0.5,10.5
280,2024-06-10T04:39:00,0.9,東北東,1.8,東北東,17.2,97.7,0,0,0.5,10.5
281,2024-06-10T04:40:00,0.9,東北東,1.8,東北東,17.1,97.5,0,0,0.5,10.5
282,2024-06-10T04:41:00,0.8,北東,1.8,東北東,17.1,97.4,0,0,0.5,10.5
283,2024-06-10T04:42:00,0.7,北東,1.6,東北東,17,97.4,0,0,0.5,10.5
284,2024-06-10T04:43:00,0.6,北東,1.3,北東,17,97.4,0,0,0.5,10.5
285,2024-06-10T04:44:00,0.6,北東,1.3,北東,17,97.5,0,0,0.5,10.5
286,2024-06-10T04:45:00,0.6,北東,1.1,東北東,17,97.6,0,0,0.5,10.5
287,2024-06-10T04:46:00,0.6,北東,1,東北東,17,97.6,0,0,0.5,10.5
288,2024-06-10T04:47:00,0.6,北東,1,東北東,17,97.6,0,0,0.5,10.5
289,2024-06-10T04:48:00,0.6,北東,1,東北東,17,97.6,0,0,0.5,10.5
290,2024-06-10T04:49:00,0.6,北東,1,東北東,17.1,97.6,0,0,0.5,10.5
291,2024-06-10T04:50:00,0.6,北東,1,東北東,17.1,97.7,0,0,0.5,10.5
292,2024-06-10T04:51:00,0.7,東北東,1,東北東,17,97.6,0,0,0.5,10.5
293,2024-06-10T04:52:00,0.7,東北東,1,東北東,17.1,97.6,0,0,0.5,10.5
294,2024-06-10T04:53:00,0.7,東,1,東北東,17,97.6,0,0,0.5,10.5
295,2024-06-10T04:54:00,0.7,東,1,東北東,17,97.6,0,0,0.5,10.5
296,2024-06-10T04:55:00,0.7,東南東,1.1,南東,17,97.6,0,0,0.5,10.5
297,2024-06-10T04:56:00,0.7,東南東,1.1,南東,17,97.6,0,0,0.5,10.5
298,2024-06-10T04:57:00,0.8,東南東,1.1,南東,17,97.6,0,0,0.5,10.5
299,2024-06-10T04:58:00,0.8,東南東,1.4,東,17,97.6,0,0,0.5,10.5
300,2024-06-10T04:59:00,0.8,東南東,1.4,東,17,97.6,0,0,0.5,10.5
301,2024-06-10T05:00:00,0.9,東南東,1.4,東,17,97.6,0,0,0.5,10.5
302,2024-06-10T05:01:00,0.9,南東,1.4,東,17,97.6,0,0,0.5,10.5
303,2024-06-10T05:02:00,0.9,南東,1.4,東,17,97.6,0,0,0.5,10.5
304,2024-06-10T05:03:00,0.9,東南東,1.4,東,17,97.6,0,0,0.5,10.5
305,2024-06-10T05:04:00,0.9,東南東,1.4,東,17,97.6,0,0,0.5,10.5
306,2024-06-10T05:05:00,0.9,東南東,1.4,東,17,97.6,0,0,0.5,10.5
307,2024-06-10T05:06:00,0.9,南東,1.4,東,17.1,97.7,0,0,0.5,10.5
308,2024-06-10T05:07:00,0.9,南東,1.4,東,17.1,97.7,0,0,0.5,10.5
309,2024-06-10T05:08:00,0.8,南東,1.4,東南東,17.3,97.7,0,0,0.5,10.5
310,2024-06-10T05:09:00,0.8,南東,1.3,東南東,17.3,97.8,0,0,0.5,10.5
311,2024-06-10T05:10:00,0.8,南東,1.3,東南東,17.1,97.7,0,0,0.5,10.5
312,2024-06-10T05:11:00,0.8,南東,1.3,東南東,17.1,97.6,0,0,0.5,10.5
313,2024-06-10T05:12:00,0.7,東南東,1.3,東南東,17.1,97.6,0,0,0.5,10.5
314,2024-06-10T05:13:00,0.8,東南東,1.4,東,17.1,97.6,0,0,0.5,10.5
315,2024-06-10T05:14:00,0.8,東南東,1.4,東,17.1,97.6,0,0,0.5,10.5
316,2024-06-10T05:15:00,0.8,東南東,1.5,東,17.1,97.6,0,0,0.5,10.5
317,2024-06-10T05:16:00,0.9,東南東,1.7,東南東,17.1,97.6,0,0,0.5,10.5
318,2024-06-10T05:17:00,0.9,東南東,1.7,東南東,17,97.5,0,0,0.5,10.5
319,2024-06-10T05:18:00,1,東南東,1.7,東南東,17,97.6,0,0,0.5,10.5
320,2024-06-10T05:19:00,1,東,1.7,東南東,17,97.6,0,0,0.5,10.5
321,2024-06-10T05:20:00,1,東,1.7,東南東,17.1,97.6,0,0,0.5,10.5
322,2024-06-10T05:21:00,1,東,1.7,東南東,17.1,97.6,0,0,0.5,10.5
323,2024-06-10T05:22:00,1,東,1.7,東南東,17.1,97.6,0,0,0.5,10.5
324,2024-06-10T05:23:00,1,東,1.7,東南東,17.1,97.6,0,0,0.5,10.5
325,2024-06-10T05:24:00,1,東,1.7,東南東,17,97.6,0,0,0.5,10.5
326,2024-06-10T05:25:00,1,東,1.7,東南東,17,97.6,0,0,0.5,10.5
327,2024-06-10T05:26:00,0.9,東,1.6,東,17,97.6,0,0,0.5,10.5
328,2024-06-10T05:27:00,0.9,東,1.6,東,17,97.6,0,0,0.5,10.5
329,2024-06-10T05:28:00,0.9,東北東,1.4,東,17,97.6,0,0,0.5,10.5
330,2024-06-10T05:29:00,0.9,東北東,1.7,東北東,17,97.6,0,0,0.5,10.5
331,2024-06-10T05:30:00,1,東北東,1.8,東,17,97.6,0,0,0.5,10.5
332,2024-06-10T05:31:00,1.1,東北東,2,東北東,17,97.5,0,0,0.5,10.5
333,2024-06-10T05:32:00,1.2,東,2.8,東,17,97.5,0,0,0.5,10.5
334,2024-06-10T05:33:00,1.2,東,2.8,東,17.1,97.5,0,0,0.5,10.5
335,2024-06-10T05:34:00,1.3,東,2.8,東,17.1,97.5,0,0,0.5,10.5
336,2024-06-10T05:35:00,1.4,東,3.1,東,17.1,97.4,0,0,0.5,10.5
337,2024-06-10T05:36:00,1.5,東,3.1,東,17.1,97.2,0,0,0.5,10.5
338,2024-06-10T05:37:00,1.6,東,3.1,東,17.1,97.2,0,0,0.5,10.5
339,2024-06-10T05:38:00,1.6,東,3.1,東,17.1,97.2,0,0,0.5,10.5
340,2024-06-10T05:39:00,1.6,東,3.1,東,17.2,97.2,0,0,0.5,10.5
341,2024-06-10T05:40:00,1.5,東,3.1,東,17.2,97.2,0,0,0.5,10.5
342,2024-06-10T05:41:00,1.5,東,3.1,東,17.2,97.1,0,0,0.5,10.5
343,2024-06-10T05:42:00,1.4,東,3.1,東,17.1,97.1,0,0,0.5,10.5
344,2024-06-10T05:43:00,1.4,東北東,3.1,東,17.2,97,0,0,0.5,10.5
345,2024-06-10T05:44:00,1.4,東北東,3.1,東,17.2,97.1,0,0,0.5,10.5
346,2024-06-10T05:45:00,1.3,東北東,3.1,東,17.2,97.2,0,0,0.5,10.5
347,2024-06-10T05:46:00,1.2,東北東,1.8,北東,17.3,97.3,0,0,0.5,10.5
348,2024-06-10T05:47:00,1.2,東北東,2.1,北北東,17.3,97.4,0,0,0.5,10.5
349,2024-06-10T05:48:00,1.2,北東,2.1,北北東,17.2,97.3,0,0,0.5,10.5
350,2024-06-10T05:49:00,1.2,北東,2.1,北北東,17.3,97.3,0,0,0.5,10.5
351,2024-06-10T05:50:00,1.2,北東,2.1,北北東,17.3,97.4,0,0,0.5,10.5
352,2024-06-10T05:51:00,1.2,北東,2.1,北北東,17.3,97.4,0,0,0.5,10.5
353,2024-06-10T05:52:00,1.3,北東,2.1,北北東,17.3,97.3,0,0,0.5,10.5
354,2024-06-10T05:53:00,1.2,北東,2.1,北北東,17.3,97.2,0,0,0.5,10.5
355,2024-06-10T05:54:00,1.2,北東,2.1,北北東,17.3,97.1,0,0,0.5,10.5
356,2024-06-10T05:55:00,1.2,東北東,2.1,北北東,17.4,97.2,0,0,0.5,10.5
357,2024-06-10T05:56:00,1.2,東北東,2.1,北北東,17.4,97.2,0,0,0.5,10.5
358,2024-06-10T05:57:00,1.1,東北東,2.1,東北東,17.4,97.1,0,0,0.5,10.5
359,2024-06-10T05:58:00,1,東北東,2.1,東北東,17.6,97.2,0,0,0.5,10.5
360,2024-06-10T05:59:00,1,東北東,2.1,東北東,17.6,97.1,0,0,0.5,10.5
361,2024-06-10T06:00:00,1,東,2.1,東北東,17.6,96.9,0,0,0.5,10.5
362,2024-06-10T06:01:00,1.1,東,2.1,東北東,17.7,97,0,0,0.5,10.5
363,2024-06-10T06:02:00,1,東,2.1,東,17.7,96.8,0,0,0.5,10.5
364,2024-06-10T06:03:00,1,東,2.1,東,17.8,96.8,0,0,0.5,10.5
365,2024-06-10T06:04:00,1,東,2.1,東,17.7,96.4,0,0,0.5,10.5
366,2024-06-10T06:05:00,1,東南東,2.1,東,17.9,96.5,0,0,0.5,10.5
367,2024-06-10T06:06:00,1,東南東,2.1,東,17.8,96.2,0,0,0.5,10.5
368,2024-06-10T06:07:00,0.9,東南東,2.1,東,17.9,96.2,0,0,0.5,10.5
369,2024-06-10T06:08:00,1,東南東,2.1,東,18.2,96.4,0,0,0.5,10.5
370,2024-06-10T06:09:00,0.9,東南東,1.9,南東,18.1,96,0,0,0.5,10.5
371,2024-06-10T06:10:00,0.8,東南東,1.9,南東,18.1,95.6,0,0,0.5,10.5
372,2024-06-10T06:11:00,0.8,東南東,1.9,南東,17.9,95.1,0,0,0.5,10.5
373,2024-06-10T06:12:00,0.8,東南東,1.9,南東,17.8,94.3,0,0,0.5,10.5
374,2024-06-10T06:13:00,0.8,東南東,1.9,南東,17.9,94.6,0,0,0.5,10.5
375,2024-06-10T06:14:00,0.8,東南東,1.6,東,18,95,0,0,0.5,10.5
376,2024-06-10T06:15:00,0.8,東,1.6,東,18,94.6,0,0,0.5,10.5
377,2024-06-10T06:16:00,0.9,東,1.6,東,17.9,94,0,0,0.5,10.5
378,2024-06-10T06:17:00,0.9,東,1.6,東,17.9,94.4,0,0,0.5,10.5
379,2024-06-10T06:18:00,1,東,2.2,北東,17.9,94.2,0,0,0.5,10.5
380,2024-06-10T06:19:00,1.2,東北東,2.2,北東,17.9,94.4,0,0,0.5,10.5
381,2024-06-10T06:20:00,1.2,東北東,2.2,北東,17.9,94.2,0,0,0.5,10.5
382,2024-06-10T06:21:00,1.2,東北東,2.2,北東,17.9,94.7,0,0,0.5,10.5
383,2024-06-10T06:22:00,1.2,東北東,2.2,北東,18,95.1,0,0,0.5,10.5
384,2024-06-10T06:23:00,1.3,東北東,2.2,北東,18.1,95.3,0,0,0.5,10.5
385,2024-06-10T06:24:00,1.2,北東,2.2,北東,18.1,94.9,0,0,0.5,10.5
386,2024-06-10T06:25:00,1.2,北東,2.2,北東,18.2,95,0,0,0.5,10.5
387,2024-06-10T06:26:00,1.2,北東,2.2,北東,18.2,94.2,0,0,0.5,10.5
388,2024-06-10T06:27:00,1.2,北東,2.2,北東,18.2,94.1,0,0,0.5,10.5
389,2024-06-10T06:28:00,1.1,北東,2,北東,18.2,94,0,0,0.5,10.5
390,2024-06-10T06:29:00,1.1,北東,1.8,北北東,18.2,94.3,0,0,0.5,10.5
391,2024-06-10T06:30:00,1,東北東,1.7,東北東,18.2,93.9,0,0,0.5,10.5
392,2024-06-10T06:31:00,0.9,東北東,1.7,東北東,18.2,94.1,0,0,0.5,10.5
393,2024-06-10T06:32:00,0.9,東北東,1.5,東北東,18.2,93.3,0,0,0.5,10.5
394,2024-06-10T06:33:00,0.8,東北東,1.5,東北東,18.2,93.6,0,0,0.5,10.5
395,2024-06-10T06:34:00,0.8,北東,1.5,東北東,18.2,93.5,0,0,0.5,10.5